Regional Weather Roundup
Issued by NWS

Home | Current Version | Previous Version | Graphics & Text | Print | Product List | Glossary Off
Versions: 1 2 3 4 5 6 7 8 9 10 11 12 13 14 15 16 17 18 19 20 21 22 23 24 25 26 27 28 29 30 31 32 33 34 35 36 37 38 39 40 41 42 43 44 45 46 47 48 49 50

899
ASUS43 KDMX 302303
RWRIA

WEATHER ROUNDUP FOR IOWA
NATIONAL WEATHER SERVICE DES MOINES IA
600 PM CDT FRI SEP 30 2016

NOTE: "FAIR" INDICATES FEW OR NO CLOUDS BELOW 12,000 FEET WITH NO
SIGNIFICANT WEATHER AND/OR OBSTRUCTIONS TO VISIBILITY.

* - THESE STATIONS ARE NOT NWS STATIONS...THUS NOT UNDER NWS
QUALITY CONTROL.  THEY ALSO DO NOT REPORT WEATHER SUCH
AS PRECIPITATION OR FOG.

IAZ001>003-012>014-020>022-031>034-043>046-010000-
   NORTHWEST IOWA

CITY           SKY/WX    TMP DP  RH WIND       PRES   REMARKS
CARROLL *      CLOUDY    70  55  60 E8        30.17R
CHEROKEE *     SUNNY     71  51  49 NE5       30.18S
DENISON *      MOSUNNY   70  54  56 MISG      30.15S
LE MARS *      SUNNY     72  45  37 E6        30.18S
SHELDON *      SUNNY     72  45  37 E7        30.17F
SIOUX CITY     SUNNY     73  48  41 E6        30.16F
SPENCER        SUNNY     71  51  49 E8        30.19S
STORM LAKE *   SUNNY     70  52  52 E8G14     30.19S
$$

IAZ055>058-069>071-079>083-090>094-010000-
   SOUTHWEST IOWA

CITY           SKY/WX    TMP DP  RH WIND       PRES   REMARKS
ATLANTIC *     SUNNY     68  55  64 E6G12     30.17S
AUDUBON *      MOSUNNY   66  55  68 NE5       30.19R
CLARINDA *       N/A     72  55  56 MISG      30.16S
COUNCIL BLFS * SUNNY     70  48  46 E8        30.15F
CRESTON *      CLOUDY    63  54  72 NE6G12    30.19S
HARLAN  *      MOSUNNY   72  54  53 E9G15     30.20S
LAMONI         CLOUDY    62  55  77 N7        30.16S
RED OAK *      SUNNY     68  55  64 NE12      30.16R
SHENANDOAH *   SUNNY     72  48  43 NE8       30.15S
$$

IAZ047>049-059>061-072>074-084-010000-
   CENTRAL IOWA

CITY           SKY/WX    TMP DP  RH WIND       PRES   REMARKS
AMES           CLOUDY    64  57  78 E8        30.17F
ANKENY *         N/A    N/A N/A N/A MISG        N/A
BOONE *        CLOUDY    63  55  77 E6        30.17S
CHARITON *       N/A     63  55  77 N6        30.15F
DES MOINES     CLOUDY    65  55  70 NE8       30.16F
GRINNELL*      CLOUDY    62  55  76 N6        30.17S
KNOXVILLE *    CLOUDY    63  55  77 N7G13     30.14F
MARSHALLTOWN   CLOUDY    63  56  78 N6        30.17S
NEWTON *       CLOUDY    63  55  77 N10       30.16S
PELLA *        CLOUDY    63  55  74 NE5       30.16F
PERRY *        CLOUDY    66  58  75 NE6       30.18R
$$

IAZ004>006-015-016-023>025-035-036-010000-
   NORTH CENTRAL IOWA

CITY           SKY/WX    TMP DP  RH WIND       PRES   REMARKS
ALGONA *       CLOUDY    68  55  64 E6        30.19S
CLARION *      CLOUDY    66  55  68 MISG      30.18S
ESTHERVILLE    CLOUDY    68  53  58 E10       30.19R
FORT DODGE *   CLOUDY    64  54  68 E8        30.19S
MASON CITY     CLOUDY    66  54  65 E12       30.20S
FOREST CITY *  CLOUDY    66  54  63 CALM      30.18F
WEBSTER CITY * CLOUDY    66  55  68 NE9       30.16S
IOWA FALLS *   CLOUDY    64  55  71 NE6       30.19S
$$

IAZ007>011-017>019-026>030-037>042-050>054-066-010000-
   NORTHEAST IOWA

CITY           SKY/WX    TMP DP  RH WIND       PRES   REMARKS
CEDAR RAPIDS   CLOUDY    62  58  86 N9        30.15S
CHARLES CITY * CLOUDY    63  55  77 E7        30.20S
CLINTON *      CLOUDY    63  58  83 N14       30.13R
DECORAH *      CLOUDY    61  57  88 CALM      30.19S
DUBUQUE        LGT RAIN  59  58  96 N12       30.16R FOG
MONTICELLO *   CLOUDY    61  57  88 CALM      30.15S
OELWEIN *      CLOUDY    61  57  88 NE10G16   30.19S
WATERLOO       CLOUDY    62  55  77 N9        30.18R
$$

IAZ064-065-067-068-078-010000-
   EAST CENTRAL IOWA

CITY           SKY/WX    TMP DP  RH WIND       PRES   REMARKS
DAVENPORT      CLOUDY    62  57  83 N9        30.12S
IOWA CITY      CLOUDY    63  56  78 N10       30.15S
MUSCATINE *    CLOUDY    64  57  77 N14       30.12F
QUAD CITIES    CLOUDY    64  58  80 N7        30.11R
$$

IAZ062-063-075>077-085>089-095>099-010000-
   SOUTHEAST IOWA

CITY           SKY/WX    TMP DP  RH WIND       PRES   REMARKS
BURLINGTON     CLOUDY    64  57  78 N10       30.10S
FAIRFIELD *    CLOUDY    64  54  68 N10       30.14R
FORT MADISON *   N/A     64  57  77 N8        30.11S
KEOKUK *       CLOUDY    66  57  72 N5G15     30.10S
OSKALOOSA *    CLOUDY    62  55  77 N6        30.15S
OTTUMWA        CLOUDY    64  54  69 N9        30.15S
WASHINGTON *     N/A    N/A N/A N/A MISG        N/A
$$

ABBREVIATIONS USED IN REMARKS
   TC - TEMPERATURES IN CELSIUS
  WCI - WIND CHILL INDEX
   HX - HEAT INDEX
  VSB - VISIBILITY
$$





USA.gov is the U.S. government's official web portal to all federal, state and local government web resources and services.